Location: Aldenham
(51.6667°N, 0.3500°W)
Time: 06:37:02
(UTC+00:00)

Cosmos 1656 Rocket - Pass Details

Date: 18 November 2025
Orbit: 791 x 846 km, 71.1° (Epoch: 10 December)

Event Time Altitude Azimuth Distance (km) Brightness Sun altitude
Rises 18:00:31 0° 174° (S) 3,332 6.9 -17.2°
Reaches altitude 10° 18:03:11 10° 164° (SSE) 2,414 6.0 -17.6°
Maximum altitude 18:07:54 30° 105° (ESE) 1,459 4.4 -18.3°
Enters shadow 18:07:59 30° 103° (ESE) 1,460 4.4 -18.4°
